Location: Nitra
(0.0000°N, 18.0833°E)
Time: 18:35:37
(UTC+02:00)

YUBILEINY - Pass Details

Date: 17 June 2023
Orbit: 1478 x 1508 km, 82.5° (Epoch: 03 October)

Event Time Altitude Azimuth Distance (km) Brightness Sun altitude
Exits shadow 04:57:59 42° 257° (WSW) 2,047 ? -25.2°
Maximum altitude 04:58:58 43° 273° (W) 2,012 ? -25.0°
Drops below altitude 10° 05:07:09 10° 341° (NNW) 3,653 ? -23.1°
Sets 05:10:15 0° 348° (NNW) 4,631 ? -22.4°
